FW2998 Weather Reports


time (UTC)temp
C
wind
direction
speed
KPH
gust
KPH
rain 1hr
cm
rain 24hr
cm
rain mn
cm
humidity
%
barometer
mb
20240723051531 23 0 0.0 0.0 0.00 0.03 0.00 96 1018.4
20240723051021 23 0 0.0 0.0 0.00 0.03 0.00 96 1018.3
20240723050521 23 0 0.0 0.0 0.00 0.03 0.00 96 1018.3
20240723050036 23 0 0.0 0.0 0.00 0.03 0.00 96 1018.4
20240723045523 23 0 0.0 0.0 0.00 0.03 0.00 96 1018.2
20240723045022 23 0 0.0 0.0 0.00 0.03 0.00 96 1018.3
20240723044525 23 0 0.0 0.0 0.00 0.03 0.00 96 1018.4
20240723044022 23 0 0.0 0.0 0.00 0.03 0.00 96 1018.3
20240723043520 23 0 0.0 0.0 0.00 0.03 0.00 96 1018.4
20240723043025 24 0 0.0 0.0 0.00 0.03 0.00 97 1018.3
20240723042525 23 0 0.0 0.0 0.00 0.03 0.00 96 1018.3
20240723042022 24 0 0.0 0.0 0.00 0.03 0.00 97 1018.5
20240723041524 24 0 0.0 0.0 0.00 0.03 0.00 96 1018.6
20240723041024 24 0 0.0 0.0 0.00 0.03 0.00 96 1018.6
20240723040524 24 0 0.0 0.0 0.00 0.03 0.00 96 1018.4
20240723040032 24 0 0.0 0.0 0.00 0.03 0.00 96 1018.6
20240723035521 24 0 0.0 0.0 0.00 0.05 0.03 96 1018.4
20240723035020 24 0 0.0 0.0 0.00 0.05 0.03 96 1018.5
20240723034533 24 0 0.0 0.0 0.00 0.05 0.03 96 1018.4
20240723034021 24 0 0.0 0.0 0.00 0.05 0.03 96 1018.5
20240723033524 24 0 0.0 0.0 0.00 0.05 0.03 96 1018.6
20240723033036 24 0 0.0 0.0 0.00 0.05 0.03 96 1018.7
20240723032524 24 0 0.0 0.0 0.00 0.05 0.03 96 1018.7
20240723032021 24 0 0.0 0.0 0.00 0.05 0.03 96 1018.7
20240723031536 24 0 0.0 0.0 0.00 0.05 0.03 96 1018.8
20240723031022 24 0 0.0 0.0 0.00 0.05 0.03 96 1018.8
20240723030520 24 0 0.0 0.0 0.00 0.05 0.03 96 1018.8
20240723030031 24 0 0.0 0.0 0.00 0.05 0.03 96 1018.8
20240723025523 24 0 0.0 0.0 0.00 0.05 0.03 96 1018.7
20240723025021 24 0 0.0 0.0 0.00 0.05 0.03 96 1018.6
20240723024524 24 0 0.0 0.0 0.00 0.05 0.03 96 1018.6
20240723024023 24 0 0.0 0.0 0.00 0.05 0.03 96 1018.6
20240723023522 24 0 0.0 0.0 0.00 0.05 0.03 96 1018.6
20240723023026 24 0 0.0 0.0 0.00 0.05 0.03 96 1018.6
20240723022521 24 0 0.0 0.0 0.00 0.05 0.03 95 1018.5
20240723022023 24 0 0.0 0.0 0.00 0.05 0.03 95 1018.4
20240723021524 24 0 0.0 0.0 0.00 0.05 0.03 95 1018.3
20240723021021 24 0 0.0 0.0 0.00 0.05 0.03 95 1018.1
20240723020524 24 0 0.0 0.0 0.00 0.05 0.03 95 1018.1
20240723020028 24 0 0.0 0.0 0.00 0.05 0.03 95 1018.0
20240723015520 24 0 0.0 0.0 0.00 0.18 0.03 95 1017.9
20240723015025 24 0 0.0 0.0 0.00 0.18 0.03 95 1017.9
20240723014532 24 0 0.0 0.0 0.00 0.18 0.03 95 1017.8
20240723014022 24 0 0.0 0.0 0.00 0.18 0.03 94 1017.6
20240723013521 24 0 0.0 0.0 0.00 0.18 0.03 95 1017.6
20240723013023 24 0 0.0 0.0 0.03 0.18 0.03 95 1017.6
20240723012520 24 0 0.0 0.0 0.03 0.18 0.03 95 1017.5
20240723012021 24 0 0.0 0.0 0.03 0.18 0.03 95 1017.5
20240723011525 24 0 0.0 0.0 0.03 0.18 0.03 95 1017.4
20240723011020 24 0 0.0 0.0 0.03 0.18 0.03 95 1017.3
20240723010523 25 0 0.0 0.0 0.03 0.18 0.03 95 1017.3
20240723010042 24 0 0.0 0.0 0.03 0.18 0.03 94 1017.1
20240723005524 24 0 0.0 0.0 0.03 0.33 0.03 94 1017.2
20240723005023 24 0 0.0 0.0 0.03 0.33 0.03 92 1017.2
20240723004525 25 0 0.0 0.0 0.03 0.33 0.03 91 1017.1
20240723004023 25 0 0.0 0.0 0.03 0.33 0.03 89 1017.1
20240723003521 26 0 0.0 4.8 0.03 0.33 0.03 87 1017.3
20240723003026 26 0 0.0 4.8 0.00 0.30 0.00 84 1017.3
20240723002522 26 0 0.0 4.8 0.00 0.30 0.00 84 1017.1
20240723002022 26 101 0.0 3.2 0.00 0.30 0.00 83 1017.1
20240723001526 26 0 0.0 4.8 0.00 0.30 0.00 83 1016.9
20240723001021 26 101 0.0 6.4 0.00 0.30 0.00 82 1016.7
20240723000521 26 0 0.0 6.4 0.00 0.30 0.00 82 1016.7
20240723000023 27 100 1.6 6.4 0.00 0.30 0.00 82 1016.7
20240722235522 27 0 0.0 4.8 0.00 0.33 0.00 82 1016.7
20240722235020 27 0 0.0 4.8 0.00 0.33 0.00 83 1016.6
20240722234527 27 0 0.0 4.8 0.00 0.33 0.00 81 1016.4
20240722234021 27 0 0.0 3.2 0.00 0.33 0.00 79 1016.2
20240722233521 28 0 0.0 3.2 0.00 0.33 0.00 80 1016.1
20240722233024 28 0 0.0 3.2 0.00 0.33 0.00 80 1016.0
20240722232519 28 0 0.0 3.2 0.00 0.33 0.00 79 1015.9
20240722232019 28 0 0.0 4.8 0.00 0.33 0.00 80 1015.8
20240722231528 28 127 0.0 4.8 0.00 0.33 0.00 79 1016.0
20240722231022 28 102 0.0 1.6 0.00 0.33 0.00 80 1016.0
20240722230520 28 0 0.0 3.2 0.00 0.33 0.00 79 1015.9
20240722230028 28 0 0.0 3.2 0.00 0.33 0.00 80 1015.8
20240722225522 28 103 0.0 3.2 0.00 0.51 0.00 81 1015.9
20240722225022 28 0 0.0 0.0 0.00 0.51 0.00 80 1016.0
20240722224523 28 0 0.0 0.0 0.00 0.51 0.00 80 1016.0
20240722224021 28 0 0.0 0.0 0.00 0.51 0.00 81 1015.9
20240722223520 28 0 0.0 4.8 0.00 0.51 0.00 80 1015.9
20240722223028 28 0 0.0 6.4 0.00 0.51 0.00 79 1015.9
20240722222521 28 92 0.0 6.4 0.00 0.51 0.00 77 1015.8
20240722222022 29 89 0.0 6.4 0.00 0.51 0.00 76 1015.8
20240722221526 28 0 0.0 6.4 0.00 0.51 0.00 76 1015.9
20240722221020 29 0 0.0 6.4 0.00 0.51 0.00 75 1015.7
20240722220520 29 98 0.0 6.4 0.00 0.51 0.00 73 1015.8
20240722220025 30 79 0.0 6.4 0.00 0.51 0.00 73 1015.7
20240722215520 30 0 1.6 6.4 0.00 0.51 0.00 75 1015.7
20240722215020 30 98 0.0 4.8 0.00 0.51 0.00 73 1015.7
20240722214533 30 0 0.0 1.6 0.00 0.51 0.00 77 1015.8
20240722214018 29 0 0.0 3.2 0.00 0.51 0.00 75 1015.7
20240722213522 28 0 0.0 4.8 0.00 0.51 0.00 80 1015.9
20240722213024 28 0 0.0 4.8 0.00 0.51 0.00 77 1015.9
20240722212522 29 0 0.0 6.4 0.00 0.51 0.00 78 1016.0
20240722212019 28 0 0.0 9.7 0.00 0.51 0.00 79 1016.1
20240722211524 28 103 3.2 9.7 0.00 0.51 0.00 79 1016.1
20240722211021 28 121 1.6 8.0 0.00 0.51 0.00 79 1016.1
20240722210520 28 85 0.0 9.7 0.00 0.51 0.00 77 1016.2
20240722210036 29 108 1.6 9.7 0.00 0.51 0.00 75 1016.3
20240722205519 29 87 1.6 6.4 0.00 0.51 0.00 77 1016.2
20240722205022 28 0 0.0 9.7 0.00 0.51 0.00 78 1016.2
20240722204526 28 0 0.0 9.7 0.00 0.51 0.00 80 1016.2
20240722204024 27 104 1.6 6.4 0.00 0.51 0.00 79 1016.3
20240722203522 28 0 0.0 6.4 0.00 0.51 0.00 78 1016.4
20240722203026 28 105 0.0 6.4 0.00 0.51 0.00 77 1016.4
20240722202520 28 0 1.6 6.4 0.00 0.51 0.00 77 1016.6
20240722202020 28 0 0.0 4.8 0.00 0.51 0.00 78 1016.6
20240722201528 28 86 1.6 9.7 0.00 0.51 0.00 76 1016.7
20240722201019 28 0 0.0 9.7 0.00 0.51 0.00 80 1016.6
20240722200519 28 80 1.6 9.7 0.00 0.51 0.00 78 1016.7
20240722200031 28 94 1.6 6.4 0.00 0.51 0.00 80 1016.7
20240722195519 27 0 0.0 0.0 0.00 0.51 0.00 83 1016.7
20240722195019 27 0 0.0 6.4 0.00 0.51 0.00 82 1016.7
20240722194524 27 0 0.0 6.4 0.00 0.51 0.00 82 1016.6
20240722194020 27 0 0.0 6.4 0.00 0.51 0.00 83 1016.8
20240722193523 27 0 0.0 6.4 0.00 0.51 0.00 82 1016.8
20240722193021 27 0 0.0 9.7 0.00 0.51 0.00 82 1016.9
20240722192520 27 93 1.6 9.7 0.00 0.51 0.00 81 1017.0
20240722192021 28 0 3.2 9.7 0.00 0.51 0.00 78 1017.1
20240722191535 28 259 1.6 9.7 0.00 0.51 0.00 77 1017.2
20240722191020 29 0 0.0 3.2 0.00 0.51 0.00 76 1017.3
20240722190522 29 0 0.0 4.8 0.00 0.51 0.00 79 1017.4
20240722190026 28 0 0.0 4.8 0.00 0.51 0.00 78 1017.3
20240722185521 28 98 0.0 6.4 0.00 0.51 0.00 78 1017.3
20240722185021 28 0 0.0 14.5 0.00 0.51 0.00 78 1017.1
20240722184528 28 96 0.0 14.5 0.00 0.51 0.00 77 1017.1
20240722184019 30 70 1.6 14.5 0.00 0.51 0.00 76 1017.2
20240722183519 31 0 0.0 4.8 0.00 0.51 0.00 71 1017.3
20240722183026 31 0 0.0 4.8 0.00 0.51 0.00 67 1017.2
20240722182519 32 0 0.0 3.2 0.00 0.51 0.00 63 1017.3
20240722182019 32 0 0.0 4.8 0.00 0.51 0.00 67 1017.3
20240722181530 31 0 0.0 4.8 0.00 0.51 0.00 65 1017.3
20240722181020 31 0 0.0 8.0 0.00 0.51 0.00 69 1017.4
20240722180520 32 0 0.0 8.0 0.00 0.51 0.00 66 1017.4
20240722180027 31 310 0.0 4.8 0.00 0.51 0.00 67 1017.4
20240722175521 32 0 0.0 12.9 0.00 0.51 0.00 62 1017.5
20240722175020 32 0 0.0 12.9 0.00 0.51 0.00 66 1017.5
20240722174526 31 0 0.0 4.8 0.00 0.51 0.00 70 1017.6
20240722174022 30 0 0.0 3.2 0.00 0.51 0.00 70 1017.6
20240722173521 31 0 0.0 6.4 0.00 0.51 0.00 69 1017.7
20240722173026 31 0 0.0 11.3 0.00 0.51 0.00 71 1017.7
20240722172521 31 68 0.0 11.3 0.00 0.51 0.00 69 1017.8
20240722172019 30 0 1.6 6.4 0.00 0.51 0.00 69 1017.9
20240722171529 30 0 0.0 4.8 0.00 0.51 0.00 72 1018.0
20240722171020 30 0 0.0 6.4 0.00 0.51 0.00 70 1018.2
20240722170519 30 0 0.0 6.4 0.00 0.51 0.00 73 1018.2
20240722170035 31 306 0.0 11.3 0.00 0.51 0.00 68 1018.3
20240722165523 30 292 0.0 11.3 0.00 0.51 0.00 73 1018.4
20240722165019 30 99 1.6 11.3 0.00 0.51 0.00 71 1018.3
20240722164551 31 239 0.0 0.0 0.00 0.51 0.00 74 1018.4
20240722164019 30 0 0.0 3.2 0.00 0.51 0.00 72 1018.4
20240722163520 30 0 0.0 4.8 0.00 0.51 0.00 74 1018.6
20240722163022 30 278 0.0 4.8 0.00 0.51 0.00 75 1018.5
20240722162520 30 0 0.0 1.6 0.00 0.51 0.00 73 1018.6
20240722162020 30 0 0.0 4.8 0.00 0.51 0.00 76 1018.5
20240722161528 30 0 0.0 9.7 0.00 0.51 0.00 73 1018.6
20240722161019 30 287 0.0 9.7 0.00 0.51 0.00 74 1018.7
20240722160519 30 277 0.0 4.8 0.00 0.51 0.00 73 1018.7
20240722160024 28 286 0.0 4.8 0.00 0.51 0.00 79 1018.7
20240722155520 29 0 0.0 4.8 0.00 0.51 0.00 74 1018.7
20240722155019 29 0 0.0 4.8 0.00 0.51 0.00 77 1018.7
20240722154530 29 0 0.0 4.8 0.00 0.51 0.00 74 1018.6
20240722154022 29 107 0.0 0.0 0.00 0.51 0.00 80 1018.6
20240722153520 28 0 0.0 4.8 0.00 0.51 0.00 79 1018.7
20240722153033 28 0 0.0 4.8 0.00 0.51 0.00 81 1018.7
20240722152519 28 0 0.0 4.8 0.00 0.51 0.00 81 1018.6
20240722152020 28 0 0.0 0.0 0.00 0.51 0.00 79 1018.6
20240722151525 28 0 0.0 0.0 0.00 0.51 0.00 81 1018.7
20240722151021 27 0 0.0 4.8 0.00 0.51 0.00 80 1018.7
20240722150520 28 0 0.0 8.0 0.00 0.51 0.00 78 1018.6
20240722150027 28 0 0.0 8.0 0.00 0.51 0.00 81 1018.6
20240722145520 27 85 0.0 1.6 0.00 0.51 0.00 83 1018.6
20240722145019 27 0 0.0 4.8 0.00 0.51 0.00 86 1018.6
20240722144523 27 0 0.0 4.8 0.00 0.51 0.00 83 1018.6
20240722144020 27 0 0.0 4.8 0.00 0.51 0.00 81 1018.5
20240722143520 27 0 0.0 3.2 0.00 0.51 0.00 83 1018.6
20240722143031 26 0 0.0 3.2 0.00 0.51 0.00 84 1018.6
20240722142519 27 0 0.0 3.2 0.00 0.51 0.00 84 1018.6
20240722142021 27 0 0.0 3.2 0.00 0.51 0.00 84 1018.6
20240722141527 27 0 0.0 3.2 0.00 0.51 0.00 83 1018.5
20240722141021 27 0 0.0 3.2 0.00 0.51 0.00 85 1018.5
20240722140521 27 0 0.0 0.0 0.00 0.51 0.00 86 1018.5
20240722140026 26 0 0.0 0.0 0.00 0.51 0.00 86 1018.6
20240722135520 26 0 0.0 4.8 0.00 0.51 0.00 88 1018.4
20240722135020 26 0 0.0 4.8 0.00 0.51 0.00 89 1018.5
20240722134526 26 0 0.0 4.8 0.00 0.51 0.00 89 1018.5
20240722134023 26 0 0.0 0.0 0.00 0.51 0.00 88 1018.5
20240722133520 26 0 0.0 1.6 0.00 0.51 0.00 91 1018.5
20240722133025 25 0 0.0 1.6 0.00 0.51 0.00 92 1018.5
20240722132519 25 0 0.0 1.6 0.00 0.51 0.00 93 1018.5
20240722132022 25 0 0.0 3.2 0.00 0.51 0.00 94 1018.5
20240722131524 25 0 0.0 3.2 0.00 0.51 0.00 95 1018.4
20240722131020 24 0 0.0 1.6 0.00 0.51 0.00 97 1018.5
20240722130520 24 0 0.0 1.6 0.00 0.51 0.00 97 1018.6
20240722130040 24 0 0.0 0.0 0.00 0.51 0.00 98 1018.5
20240722125522 24 0 0.0 0.0 0.00 0.51 0.00 98 1018.5
20240722125021 24 0 0.0 0.0 0.00 0.51 0.00 98 1018.5
20240722124529 23 0 0.0 0.0 0.00 0.51 0.00 98 1018.5
20240722124021 23 0 0.0 0.0 0.00 0.51 0.00 98 1018.5
20240722123523 23 0 0.0 0.0 0.00 0.51 0.00 98 1018.3
20240722123026 23 0 0.0 0.0 0.00 0.51 0.00 98 1018.4
20240722122518 23 0 0.0 0.0 0.00 0.51 0.00 98 1018.3
20240722122020 23 0 0.0 0.0 0.00 0.51 0.00 98 1018.4
20240722121537 23 0 0.0 1.6 0.00 0.51 0.00 98 1018.4
20240722121022 23 0 0.0 1.6 0.00 0.51 0.00 99 1018.4
20240722120522 23 0 0.0 1.6 0.00 0.51 0.00 98 1018.5
20240722120041 23 0 0.0 0.0 0.00 0.51 0.00 99 1018.5
20240722115521 23 0 0.0 0.0 0.00 0.51 0.00 99 1018.4
20240722115022 23 0 0.0 0.0 0.00 0.51 0.00 99 1018.4
20240722114539 23 0 0.0 0.0 0.00 0.51 0.00 99 1018.4
20240722114022 22 0 0.0 0.0 0.00 0.51 0.00 99 1018.3
20240722113522 23 0 0.0 0.0 0.00 0.51 0.00 99 1018.3
20240722113029 22 0 0.0 0.0 0.00 0.51 0.00 99 1018.2
20240722112520 22 0 0.0 0.0 0.00 0.51 0.00 99 1018.2
20240722112022 23 0 0.0 0.0 0.00 0.51 0.00 99 1018.3
20240722111537 22 0 0.0 0.0 0.00 0.51 0.00 99 1018.3
20240722111019 22 0 0.0 0.0 0.00 0.51 0.00 99 1018.2
20240722110520 22 0 0.0 0.0 0.00 0.51 0.00 99 1018.2
20240722110046 22 0 0.0 0.0 0.00 0.51 0.00 99 1018.3
20240722105519 22 0 0.0 0.0 0.00 0.51 0.00 99 1018.3
20240722105019 22 0 0.0 0.0 0.00 0.51 0.00 99 1018.2
20240722104522 22 0 0.0 0.0 0.00 0.51 0.00 99 1018.2
20240722104020 22 0 0.0 0.0 0.00 0.51 0.00 99 1018.2
20240722103522 22 0 0.0 0.0 0.00 0.51 0.00 99 1018.1
20240722103027 22 0 0.0 0.0 0.00 0.51 0.00 99 1018.2
20240722102524 22 0 0.0 0.0 0.00 0.51 0.00 99 1018.1
20240722102022 22 0 0.0 0.0 0.00 0.51 0.00 99 1017.9
20240722101528 22 0 0.0 0.0 0.00 0.51 0.00 99 1017.9
20240722101024 22 0 0.0 0.0 0.00 0.51 0.00 99 1017.9
20240722100523 22 0 0.0 0.0 0.00 0.51 0.00 99 1017.9
20240722100027 22 0 0.0 0.0 0.00 0.51 0.00 99 1017.8
20240722095527 22 0 0.0 0.0 0.00 0.51 0.00 99 1017.7
20240722095022 22 0 0.0 0.0 0.00 0.51 0.00 99 1017.7
20240722094526 22 0 0.0 0.0 0.00 0.51 0.00 99 1017.7
20240722094022 22 0 0.0 0.0 0.00 0.51 0.00 99 1017.6
20240722093523 22 0 0.0 0.0 0.00 0.51 0.00 98 1017.6
20240722093029 22 0 0.0 0.0 0.00 0.51 0.00 98 1017.5
20240722092523 22 0 0.0 0.0 0.00 0.51 0.00 98 1017.4
20240722092022 22 0 0.0 0.0 0.00 0.51 0.00 98 1017.3
20240722091527 22 0 0.0 0.0 0.00 0.51 0.00 98 1017.4
20240722091022 22 0 0.0 0.0 0.00 0.51 0.00 98 1017.4
20240722090522 22 0 0.0 0.0 0.00 0.51 0.00 98 1017.4
20240722090024 22 0 0.0 0.0 0.00 0.51 0.00 98 1017.4
20240722085522 22 0 0.0 0.0 0.00 0.51 0.00 98 1017.4
20240722085022 22 0 0.0 0.0 0.00 0.51 0.00 99 1017.4
20240722084526 22 0 0.0 0.0 0.00 0.51 0.00 98 1017.5
20240722084021 22 0 0.0 0.0 0.00 0.51 0.00 98 1017.5
20240722083524 22 0 0.0 0.0 0.00 0.51 0.00 99 1017.5
20240722083027 22 0 0.0 0.0 0.00 0.51 0.00 99 1017.5
20240722082520 22 0 0.0 0.0 0.00 0.51 0.00 99 1017.5
20240722082022 22 0 0.0 0.0 0.00 0.51 0.00 99 1017.4
20240722081538 22 0 0.0 0.0 0.00 0.51 0.00 98 1017.3
20240722081023 22 0 0.0 0.0 0.00 0.51 0.00 98 1017.3
20240722080523 22 0 0.0 0.0 0.00 0.51 0.00 98 1017.3
20240722080026 22 0 0.0 0.0 0.00 0.51 0.00 98 1017.1
20240722075524 22 0 0.0 0.0 0.00 0.51 0.00 98 1017.3
20240722075023 22 0 0.0 0.0 0.00 0.51 0.00 98 1017.2
20240722074527 22 0 0.0 0.0 0.00 0.51 0.00 98 1017.3
20240722074025 22 0 0.0 0.0 0.00 0.51 0.00 98 1017.4
20240722073523 22 0 0.0 0.0 0.00 0.51 0.00 98 1017.5
20240722073028 22 0 0.0 0.0 0.00 0.51 0.00 98 1017.5
20240722072526 22 0 0.0 0.0 0.00 0.51 0.00 98 1017.5
20240722072022 22 0 0.0 0.0 0.00 0.51 0.00 98 1017.5
20240722071535 23 0 0.0 0.0 0.00 0.51 0.00 99 1017.6
20240722071022 22 0 0.0 0.0 0.00 0.51 0.00 99 1017.6
20240722070523 23 0 0.0 0.0 0.00 0.51 0.00 98 1017.6
20240722070030 22 0 0.0 0.0 0.00 0.51 0.00 98 1017.5
20240722065523 22 0 0.0 0.0 0.00 0.51 0.00 98 1017.6
20240722065022 22 0 0.0 0.0 0.00 0.51 0.00 99 1017.6
20240722064528 22 0 0.0 0.0 0.00 0.51 0.00 98 1017.7
20240722064019 22 0 0.0 0.0 0.00 0.51 0.00 98 1017.7
20240722063523 23 0 0.0 0.0 0.00 0.51 0.00 98 1017.7
20240722063029 23 0 0.0 0.0 0.00 0.51 0.00 98 1017.8
20240722062523 23 0 0.0 0.0 0.00 0.51 0.00 98 1017.9
20240722062026 23 0 0.0 0.0 0.00 0.51 0.00 98 1017.9
20240722061530 23 0 0.0 0.0 0.00 0.51 0.00 98 1018.0
20240722061023 23 0 0.0 0.0 0.00 0.51 0.00 98 1018.1
20240722060523 23 0 0.0 0.0 0.00 0.51 0.00 98 1018.1
20240722060029 23 0 0.0 0.0 0.00 0.51 0.00 98 1018.2
20240722055526 23 0 0.0 0.0 0.00 0.51 0.00 98 1018.3
20240722055022 23 0 0.0 0.0 0.00 0.51 0.00 98 1018.3
20240722054525 23 0 0.0 0.0 0.00 0.51 0.00 98 1018.3
20240722054022 23 0 0.0 0.0 0.00 0.51 0.00 98 1018.4
20240722053522 23 0 0.0 0.0 0.00 0.51 0.00 98 1018.6
20240722053027 23 0 0.0 0.0 0.00 0.51 0.00 98 1018.6
20240722052525 23 0 0.0 0.0 0.00 0.51 0.00 98 1018.7
20240722052021 23 0 0.0 0.0 0.00 0.51 0.00 98 1018.7